Location: Ravensburg
(47.7866°N, 9.6124°E)
Time: 00:31:29
(UTC+01:00)

AO-91 - Visible Passes

Search period start: 15 March 2026 00:00
Search period end: 25 March 2026 00:00
Orbit: 427 x 639 km, 97.5° (Epoch: 14 March)

Date Brightness Start Highest point End Pass type
(mag) Time Alt. Az. Time Alt. Az. Time Alt. Az.
15 Mar ? 21:12:29 10° NNE 21:13:06 14° NNE 21:13:06 14° NNE visible
15 Mar ? 22:47:43 10° NNW 22:48:29 13° NNW 22:48:29 13° NNW visible
16 Mar ? 21:03:04 10° NNE 21:03:41 14° NNE 21:03:41 14° NNE visible
16 Mar ? 22:37:59 10° NNW 22:39:03 15° NNW 22:39:03 15° NNW visible
17 Mar ? 20:53:40 10° NNE 20:54:14 13° NNE 20:54:14 13° NNE visible
17 Mar ? 22:28:16 10° N 22:29:35 17° NNW 22:29:35 17° NNW visible
18 Mar ? 20:44:17 10° NNE 20:44:45 12° NE 20:44:45 12° NE visible
18 Mar ? 22:18:35 10° N 22:20:07 19° NNW 22:20:07 19° NNW visible
19 Mar ? 20:34:56 10° NE 20:35:13 11° NE 20:35:13 11° NE visible
19 Mar ? 22:08:54 10° N 22:10:35 21° NNW 22:10:35 21° NNW visible
20 Mar ? 20:25:40 10° NE 20:25:41 10° NE 20:25:41 10° NE visible
20 Mar ? 21:59:14 10° N 22:01:02 23° N 22:01:02 23° N visible
21 Mar ? 21:49:33 10° N 21:51:27 25° N 21:51:27 25° N visible
22 Mar ? 21:39:54 10° N 21:41:51 26° N 21:41:51 26° N visible
22 Mar ? 23:16:52 10° NW 23:17:12 10° NW 23:17:12 10° NW visible
23 Mar ? 21:30:14 10° NNE 21:32:12 26° NNE 21:32:12 26° NNE visible
23 Mar ? 23:06:21 10° NNW 23:07:34 12° NW 23:07:34 12° NW visible
24 Mar ? 21:20:35 10° NNE 21:22:32 25° NNE 21:22:32 25° NNE visible
24 Mar ? 22:56:12 10° NNW 22:57:53 15° NW 22:57:53 15° NW visible
